Regional Weather Roundup
Issued by NWS

Home | Current Version | Previous Version | Text Only | Print | Product List | Glossary On
Versions: 1 2 3 4 5 6 7 8 9 10 11 12 13 14 15 16 17 18 19 20 21 22 23 24 25 26 27 28 29 30 31 32 33 34 35 36 37 38 39 40 41 42 43 44 45 46 47 48 49 50
000
ASUS43 KOAX 171910
RWRNE

WEATHER ROUNDUP FOR NEBRASKA
NATIONAL WEATHER SERVICE OMAHA NE
200 PM CDT WED SEP 17 2014

NOTES: SATELLITE DATA IS BEING USED TO AUGMENT CLOUD COVER ABOVE
       12000 FEET.
       "FAIR" INDICATES FEW OR NO CLOUDS BELOW 12,000 FEET WITH NO
       SIGNIFICANT WEATHER AND/OR OBSTRUCTIONS TO VISIBILITY.

  * THESE STATIONS DO NOT REPORT WEATHER SUCH AS RAIN...SNOW OR FOG.

NEZ001>004-019>022-054>056-172000-
NEBRASKA PANHANDLE

CITY           SKY/WX    TMP DP  RH WIND       PRES   REMARKS
SCOTTSBLUFF    SUNNY     85  43  22 CALM      29.97F
ALLIANCE       SUNNY     83  46  27 E6        29.97F
CHADRON        SUNNY     81  51  35 SE5       29.95F
KIMBALL        SUNNY     84  38  19 CALM      30.03S
SIDNEY         SUNNY     87  43  21 VRB6      30.01F
$$

NEZ057>060-069>072-079>082-172000-
SOUTHWEST NEBRASKA

CITY           SKY/WX    TMP DP  RH WIND       PRES   REMARKS
NORTH PLATTE   SUNNY     82  60  47 SE9       29.92F
IMPERIAL       SUNNY     85  49  28 S6        29.94F
LEXINGTON      MOSUNNY   79  63  57 SE9       29.93F
MCCOOK         SUNNY     80  60  50 S8        29.93F
OGALLALA       SUNNY     86  53  32 S5        29.93F
$$

NEZ005>010-023>029-035>040-094-172000-
NORTH CENTRAL NEBRASKA

CITY           SKY/WX    TMP DP  RH WIND       PRES   REMARKS
VALENTINE      SUNNY     83  54  36 E7        29.93F
AINSWORTH      SUNNY     79  54  42 E6        29.94S
BROKEN BOW     SUNNY     85  59  41 SE8       29.92F
O`NEILL        SUNNY     80  59  50 E7        29.93S
ORD            SUNNY     80  62  54 E8        29.90F
THEDFORD       SUNNY     87  49  27 SE8       29.94S
$$

NEZ041-046>049-061>064-073>077-083>087-172000-
SOUTH CENTRAL NEBRASKA

CITY           SKY/WX    TMP DP  RH WIND       PRES   REMARKS
GRAND ISLAND   SUNNY     80  63  55 E9        29.92F
AURORA         SUNNY     78  62  57 E7        29.92S
HASTINGS       SUNNY     77  60  55 SE13      29.92F
HEBRON         SUNNY     76  64  64 E8        29.91F
HOLDREGE       MOSUNNY   79  60  52 SE9       29.93S
KEARNEY *      MOSUNNY   79  63  57 E10       29.93F
YORK           SUNNY     75  64  69 E7        29.92S
$$

NEZ011>018-030>034-042>045-172000-
NORTHEAST NEBRASKA

CITY           SKY/WX    TMP DP  RH WIND       PRES   REMARKS
NORFOLK        SUNNY     78  62  57 SE8       29.91F
ALBION         SUNNY     78  61  55 SE7       29.91F
BLAIR          SUNNY     77  62  59 E6        29.92F
COLUMBUS *     SUNNY     79  63  57 SE9       29.92S
FREMONT        SUNNY     79  61  53 E7        29.91F
TEKAMAH        SUNNY     80  59  48 NE6       29.91F
WAYNE          SUNNY     79  60  51 E3        29.91F
$$

NEZ050>053-065>068-078-088>093-172000-
SOUTHEAST NEBRASKA

CITY           SKY/WX    TMP DP  RH WIND       PRES   REMARKS
LINCOLN        SUNNY     77  64  64 E12       29.92F
OMAHA EPPLEY   MOSUNNY   77  60  55 E7        29.91F
BEATRICE       MOSUNNY   77  65  65 SE10      29.91F
FALLS CITY     PTSUNNY   75  66  73 SE6       29.91F
NEBRASKA CITY  SUNNY     74  58  57 E8        29.92F
PLATTSMOUTH    MOSUNNY   76  60  58 E7        29.92F
$$

NEZ044-045-051>053-067-172000-
OMAHA AREA

CITY           SKY/WX    TMP DP  RH WIND       PRES   REMARKS
OMAHA EPPLEY   MOSUNNY   77  60  55 E7        29.91F
BLAIR          SUNNY     77  62  59 E6        29.92F
FREMONT        SUNNY     79  61  53 E7        29.91F
MILLARD        SUNNY     76  63  62 SE3       29.91F
OFFUTT AFB     SUNNY     78  66  67 VRB3      29.91F
PLATTSMOUTH    MOSUNNY   76  60  58 E7        29.92F
WAHOO          FAIR      78  60  54 E6        29.92S
$$


USA.gov is the U.S. government's official web portal to all federal, state and local government web resources and services.